Regional Weather Roundup
Issued by NWS

Home | Current Version | Previous Version | Graphics & Text | Print | Product List | Glossary On
Versions: 1 2 3 4 5 6 7 8 9 10 11 12 13 14 15 16 17 18 19 20 21 22 23 24 25 26 27 28 29 30 31 32 33 34 35 36 37 38 39 40 41 42 43 44 45 46 47 48 49 50
000
ASUS43 KLOT 211503
RWRIL

ILLINOIS REGIONAL WEATHER ROUNDUP
NATIONAL WEATHER SERVICE CHICAGO/ROMEOVILLE IL
1000 AM CDT THU SEP 21 2017

NOTE: "FAIR" INDICATES FEW OR NO CLOUDS BELOW 12,000 FEET WITH NO
SIGNIFICANT WEATHER AND/OR OBSTRUCTIONS TO VISIBILITY.

* THESE STATIONS ARE NOT UNDER NWS QUALITY CONTROL. THEY ALSO MAY NOT
  REPORT WEATHER SUCH AS PRECIPITATION OR FOG.

ILZ001-002-007-009-015-016-024-211600-
NORTHWEST ILLINOIS

CITY           SKY/WX    TMP DP  RH WIND       PRES   REMARKS
MOLINE         LGT RAIN  73  62  68 S14       29.99F
STERLING*        N/A     73  65  75 SE6       30.01R
SAVANNA*       CLOUDY    71  65  83 NE8       30.00F
$$

ILZ003-004-008-010-011-017-018-211600-
NORTH CENTRAL ILLINOIS

CITY           SKY/WX    TMP DP  RH WIND       PRES   REMARKS
ROCKFORD       CLOUDY    75  69  81 E5        30.04R
FREEPORT*      CLOUDY    72  68  88 E3        30.05R
ROCHELLE*      CLOUDY    75  67  76 SE6       30.04S
DE KALB*       CLOUDY    78  69  72 SE6       30.05R HX  80
$$

ILZ005-006-012>014-019>023-211600-
NORTHEAST ILLINOIS

CITY           SKY/WX    TMP DP  RH WIND       PRES   REMARKS
CHICAGO-OHARE  PTSUNNY   84  68  58 SW5       30.03R HX  87
CHICAGO-MIDWAY PTSUNNY   83  69  62 S3        30.03R HX  86
AURORA         MOSUNNY   80  68  66 SE7       30.04R HX  83
LANSING*       SUNNY     79  72  79 S3        30.04S HX  82
JOLIET*        MOSUNNY   82  69  64 CALM      30.03S HX  85
WAUKEGAN       PTSUNNY   81  71  71 SW3       30.03R HX  85
DUPAGE AIRPORT MOSUNNY   81  70  69 SE6       30.03R HX  84
KANKAKEE*      MOSUNNY   80  71  72 S3        30.05S HX  84
WHEELING       PTSUNNY   84  71  65 S6        30.04R HX  89
NORTHERLY ISL    N/A     82  67  60 S5          N/A  HX  84
$$

LMZ740>746-211600-
SOUTHERN LAKE MICHIGAN

STATION/POSITION SKY/WX   TEMP    WIND        PRES    VSBY  WAVE
                          AIR SEA DIR/SP/G                  HT/PER
                          (F)     (DEG/KT/KT) (MB)    (MI)  (FT/S)
SOUTHERN BUOY              71 69  270/  8/ 10 1016.2          1/ 3
WILMETTE HARBOR            75 70   CALM  /  2   N/A           1
HARRISON CRIB              79     200/ 11/ 11   N/A
CALUMET HARBOR             80     210/  5/  7 1016.2R
BURNS HARBOR               80     190/  7/  9 1017.3S
MICHIGAN CITY              78     150/  8/ 10   N/A
MICHIGAN CITY 6N           73 70  170/  4/  6   N/A           0
ST. JOSEPH                 72 69  200/  8/ 10 1016.7F         1
$$

ILZ025>027-034>036-040-047-049-050-058-095>099-211600-
WEST-CENTRAL ILLINOIS

CITY           SKY/WX    TMP DP  RH WIND       PRES   REMARKS
QUINCY         CLOUDY    75  65  70 NE10      30.05R
MACOMB*        CLOUDY    70  65  85 CALM      30.06R
$$

ILZ028>032-037-038-041>044-048-051>054-059>061-211600-
CENTRAL ILLINOIS

CITY           SKY/WX    TMP DP  RH WIND       PRES   REMARKS
BLOOMINGTON    CLOUDY    82  72  71 VRB6      30.06R HX  87
DECATUR        PTSUNNY   81  72  74 SW7       30.05S HX  85
PEORIA         CLOUDY    75  67  76 SW5       30.04R
LACON*         CLOUDY    77  66  69 SW6       30.03R
LINCOLN*       CLOUDY    82  74  76 CALM      30.03F HX  87
SPRINGFIELD    CLOUDY    82  73  74 S5        30.03S HX  87
TAYLORVILLE    NOT AVBL
$$

ILZ033-039-045-046-055>057-062-063-211600-
EAST-CENTRAL ILLINOIS

CITY           SKY/WX    TMP DP  RH WIND       PRES   REMARKS
CHAMPAIGN      SUNNY     83  71  67 SW7       30.06S HX  87
MATTOON        SUNNY     83  73  72 S5        30.06R HX  89
PARIS*           N/A     83  72  69 CALM      30.08S HX  89
$$

ILZ079-100>102-211600-
SOUTHWEST ILLINOIS

CITY           SKY/WX    TMP DP  RH WIND       PRES   REMARKS
BELLEVILLE     MOSUNNY   80  70  70 SE6       30.07R HX  83
CAHOKIA*       MOSUNNY   85  71  63 VRB3      30.03R HX  90
SPARTA*        MOSUNNY   80  73  78 S6        30.06S HX  84
$$

ILZ064>066-069>071-074>076-080>082-084>086-088>090-092>094-211600-
SOUTH-CENTRAL ILLINOIS

CITY           SKY/WX    TMP DP  RH WIND       PRES   REMARKS
CARBONDALE     SUNNY     82  74  76 CALM      30.06S HX  88
MARION         MOSUNNY   84  75  74 SW6       30.08R HX  92
MT. VERNON       N/A     84  74  71 CALM      30.07S HX  91
CENTRALIA*     MOSUNNY   85  74  69 CALM      30.05S HX  93
SALEM*         MOSUNNY   84  72  67 S3        30.07R HX  89
METROPOLIS*    SUNNY     82  73  73 CALM      30.08S HAZE    HX  88
$$

ILZ067-068-072-073-078-083-087-091-211600-
SOUTHEAST ILLINOIS

CITY           SKY/WX    TMP DP  RH WIND       PRES   REMARKS
LAWRENCEVILLE  SUNNY     83  73  72 VRB3      30.09R HX  89
FLORA*         SUNNY     86  74  66 S3        30.07S HX  94
FAIRFIELD*     SUNNY     84  72  66 CALM      30.06S HX  90
HARRISBURG*    SUNNY     84  74  70 W3        30.08R HX  91
ROBINSON*      SUNNY     82  72  73 SE3       30.09S HX  86
CARMI*         MOSUNNY   84  73  69 CALM      30.08R HX  90
$$

ABBREVIATIONS USED IN REMARKS
   TC - TEMPERATURE IN CELSIUS
  WCI - WIND CHILL INDEX
   HX - HEAT INDEX
  VSB - VISIBILITY
$$





USA.gov is the U.S. government's official web portal to all federal, state and local government web resources and services.